"datetime","temp","dp","rain_mm","uv","solar","mb","wind_mph","gust_mph","windchill","rh"
"2022-03-13 00:00:00",9.3,7.4,0.0,0.0,0,1004.3,4,6,7.9,88
"2022-03-13 00:01:00",9.3,7.4,0.0,0.0,0,1004.3,3,5,8.2,88
"2022-03-13 00:02:00",9.3,7.4,0.0,0.0,0,1004.2,2,4,8.6,88
"2022-03-13 00:03:00",9.3,7.4,0.0,0.0,0,1004.3,3,7,7.6,88
"2022-03-13 00:04:00",9.3,7.4,0.0,0.0,0,1004.2,5,9,7.1,88
"2022-03-13 00:05:00",9.3,7.4,0.0,0.0,0,1004.3,2,4,8.6,88
"2022-03-13 00:06:00",9.3,7.4,0.0,0.0,0,1004.3,3,5,8.2,88
"2022-03-13 00:07:00",9.3,7.4,0.0,0.0,0,1004.2,4,6,7.9,88
"2022-03-13 00:08:00",9.3,7.4,0.0,0.0,0,1004.2,2,5,8.2,88
"2022-03-13 00:09:00",9.3,7.4,0.0,0.0,0,1004.2,4,11,6.7,88
"2022-03-13 00:10:00",9.3,7.4,0.0,0.0,0,1004.3,6,15,6.1,88
"2022-03-13 00:11:00",9.3,7.4,0.0,0.0,0,1004.2,2,3,"",88
"2022-03-13 00:12:00",9.3,7.4,0.0,0.0,0,1004.3,5,9,7.1,88
"2022-03-13 00:13:00",9.3,7.4,0.0,0.0,0,1004.2,5,9,7.1,88
"2022-03-13 00:14:00",9.3,7.4,0.0,0.0,0,1004.2,5,10,6.9,88
"2022-03-13 00:15:00",9.3,7.4,0.0,0.0,0,1004.2,4,14,6.3,88
"2022-03-13 00:16:00",9.3,7.4,0.0,0.0,0,1004.1,4,11,6.7,88
"2022-03-13 00:17:00",9.3,7.4,0.0,0.0,0,1004.1,2,4,8.6,88
"2022-03-13 00:18:00",9.3,7.4,0.0,0.0,0,1004.1,5,9,7.1,88
"2022-03-13 00:19:00",9.3,7.4,0.0,0.0,0,1004.1,4,7,7.6,88
"2022-03-13 00:20:00",9.3,7.4,0.0,0.0,0,1004.1,3,7,7.6,88
"2022-03-13 00:21:00",9.3,7.4,0.0,0.0,0,1004.1,4,7,7.6,88
"2022-03-13 00:22:00",9.3,7.4,0.0,0.0,0,1004.1,3,7,7.6,88
"2022-03-13 00:23:00",9.3,7.4,0.0,0.0,0,1004.2,3,6,7.9,88
"2022-03-13 00:24:00",9.3,7.4,0.0,0.0,0,1004.2,4,7,7.6,88
"2022-03-13 00:25:00",9.3,7.4,0.0,0.0,0,1004.1,3,9,7.1,88
"2022-03-13 00:26:00",9.3,7.4,0.0,0.0,0,1004.1,2,3,"",88
"2022-03-13 00:27:00",9.3,7.4,0.0,0.0,0,1004.2,3,5,8.2,88
"2022-03-13 00:28:00",9.3,7.4,0.0,0.0,0,1004.1,2,5,8.2,88
"2022-03-13 00:29:00",9.3,7.4,0.0,0.0,0,1004.1,3,7,7.6,88
"2022-03-13 00:30:00",9.3,7.4,0.0,0.0,0,1004.1,5,8,7.3,88
"2022-03-13 00:31:00",9.3,7.4,0.0,0.0,0,1004.2,5,9,7.1,88
"2022-03-13 00:32:00",9.3,7.4,0.0,0.0,0,1004.1,4,9,7.1,88
"2022-03-13 00:33:00",9.3,7.4,0.0,0.0,0,1004.0,2,5,8.2,88
"2022-03-13 00:34:00",9.3,7.4,0.0,0.0,0,1004.1,2,4,8.6,88
"2022-03-13 00:35:00",9.3,7.4,0.0,0.0,0,1003.9,2,5,8.2,88
"2022-03-13 00:36:00",9.3,7.4,0.0,0.0,0,1004.0,5,9,7.1,88
"2022-03-13 00:37:00",9.3,7.4,0.0,0.0,0,1004.0,3,5,8.2,88
"2022-03-13 00:38:00",9.3,7.4,0.0,0.0,0,1004.0,4,8,7.3,88
"2022-03-13 00:39:00",9.3,7.4,0.0,0.0,0,1004.0,3,5,8.2,88
"2022-03-13 00:40:00",9.3,7.4,0.0,0.0,0,1004.1,4,6,7.9,88
"2022-03-13 00:41:00",9.3,7.4,0.0,0.0,0,1004.1,5,8,7.3,88
"2022-03-13 00:42:00",9.3,7.4,0.0,0.0,0,1004.0,4,8,7.3,88
"2022-03-13 00:43:00",9.3,7.4,0.0,0.0,0,1004.1,4,8,7.3,88
"2022-03-13 00:44:00",9.3,7.4,0.0,0.0,0,1004.0,3,7,7.6,88
"2022-03-13 00:45:00",9.4,7.5,0.0,0.0,0,1004.0,2,6,7.9,88
"2022-03-13 00:46:00",9.4,7.5,0.0,0.0,0,1004.0,4,8,7.3,88
"2022-03-13 00:47:00",9.4,7.5,0.0,0.0,0,1004.0,4,8,7.5,88
"2022-03-13 00:48:00",9.3,7.4,0.0,0.0,0,1004.0,4,8,7.5,88
"2022-03-13 00:49:00",9.4,7.5,0.0,0.0,0,1004.0,5,11,6.9,88
"2022-03-13 00:50:00",9.4,7.5,0.0,0.0,0,1004.0,3,6,7.9,88
"2022-03-13 00:51:00",9.3,7.4,0.0,0.0,0,1004.0,4,7,7.6,88
"2022-03-13 00:52:00",9.4,7.5,0.0,0.0,0,1004.0,3,8,7.3,88
"2022-03-13 00:53:00",9.4,7.5,0.0,0.0,0,1004.0,3,7,7.7,88
"2022-03-13 00:54:00",9.4,7.5,0.0,0.0,0,1003.9,2,4,8.6,88
"2022-03-13 00:55:00",9.3,7.4,0.0,0.0,0,1004.0,2,4,8.6,88
"2022-03-13 00:56:00",9.3,7.4,0.0,0.0,0,1003.9,2,5,8.3,88
"2022-03-13 00:57:00",9.3,7.4,0.0,0.0,0,1004.0,2,5,8.2,88
"2022-03-13 00:58:00",9.3,7.4,0.0,0.0,0,1003.9,3,8,7.3,88
"2022-03-13 00:59:00",9.3,7.4,0.0,0.0,0,1004.0,4,9,7.1,88
"2022-03-13 01:00:00",9.3,7.4,0.0,0.0,0,1003.9,3,7,7.6,88
"2022-03-13 01:01:00",9.3,7.4,0.0,0.0,0,1003.9,4,7,7.6,88
"2022-03-13 01:02:00",9.3,7.4,0.0,0.0,0,1003.9,2,5,8.2,88
"2022-03-13 01:03:00",9.3,7.4,0.0,0.0,0,1003.8,2,4,8.6,88
"2022-03-13 01:04:00",9.3,7.4,0.0,0.0,0,1003.8,2,3,"",88
"2022-03-13 01:05:00",9.3,7.4,0.0,0.0,0,1003.8,4,6,7.9,88
"2022-03-13 01:06:00",9.3,7.4,0.0,0.0,0,1003.7,3,7,7.6,88
"2022-03-13 01:07:00",9.3,7.4,0.0,0.0,0,1003.8,5,7,7.6,88
"2022-03-13 01:08:00",9.3,7.4,0.0,0.0,0,1003.8,3,3,"",88
"2022-03-13 01:09:00",9.3,7.4,0.0,0.0,0,1003.8,3,7,7.6,88
"2022-03-13 01:10:00",9.3,7.4,0.0,0.0,0,1003.8,2,4,8.6,88
"2022-03-13 01:11:00",9.3,7.4,0.0,0.0,0,1003.7,3,6,7.9,88
"2022-03-13 01:12:00",9.3,7.4,0.0,0.0,0,1003.7,5,9,7.1,88
"2022-03-13 01:13:00",9.3,7.4,0.0,0.0,0,1003.8,4,8,7.3,88
"2022-03-13 01:14:00",9.3,7.4,0.0,0.0,0,1003.9,2,6,7.9,88
"2022-03-13 01:15:00",9.3,7.4,0.0,0.0,0,1003.8,4,6,7.9,88
"2022-03-13 01:16:00",9.3,7.4,0.0,0.0,0,1003.8,2,4,8.6,88
"2022-03-13 01:17:00",9.3,7.4,0.0,0.0,0,1003.7,5,8,7.3,88
"2022-03-13 01:18:00",9.3,7.4,0.0,0.0,0,1003.7,4,8,7.3,88
"2022-03-13 01:19:00",9.3,7.4,0.0,0.0,0,1003.7,3,7,7.6,88
"2022-03-13 01:20:00",9.3,7.4,0.0,0.0,0,1003.7,2,4,8.6,88
"2022-03-13 01:21:00",9.3,7.4,0.0,0.0,0,1003.7,4,10,6.9,88
"2022-03-13 01:22:00",9.3,7.4,0.0,0.0,0,1003.7,4,10,6.9,88
"2022-03-13 01:23:00",9.3,7.4,0.0,0.0,0,1003.6,2,4,8.6,88
"2022-03-13 01:24:00",9.3,7.4,0.0,0.0,0,1003.6,4,8,7.3,88
"2022-03-13 01:25:00",9.3,7.4,0.0,0.0,0,1003.7,5,10,6.9,88
"2022-03-13 01:26:00",9.3,7.4,0.0,0.0,0,1003.6,6,9,7.1,88
"2022-03-13 01:27:00",9.3,7.4,0.0,0.0,0,1003.6,2,6,7.9,88
"2022-03-13 01:28:00",9.3,7.4,0.0,0.0,0,1003.6,2,3,"",88
"2022-03-13 01:29:00",9.3,7.4,0.0,0.0,0,1003.5,3,5,8.2,88
"2022-03-13 01:30:00",9.3,7.4,0.0,0.0,0,1003.6,5,8,7.3,88
"2022-03-13 01:31:00",9.3,7.2,0.0,0.0,0,1003.6,2,6,7.9,87
"2022-03-13 01:32:00",9.3,7.2,0.0,0.0,0,1003.5,5,7,7.6,87
"2022-03-13 01:33:00",9.4,7.3,0.0,0.0,0,1003.5,3,8,7.3,87
"2022-03-13 01:34:00",9.4,7.3,0.0,0.0,0,1003.5,3,9,7.2,87
"2022-03-13 01:35:00",9.4,7.3,0.0,0.0,0,1003.4,6,10,7.0,87
"2022-03-13 01:36:00",9.4,7.3,0.0,0.0,0,1003.4,3,6,8.0,87
"2022-03-13 01:37:00",9.4,7.3,0.0,0.0,0,1003.4,3,5,8.3,87
"2022-03-13 01:38:00",9.3,7.2,0.0,0.0,0,1003.4,3,5,8.2,87
"2022-03-13 01:39:00",9.4,7.3,0.0,0.0,0,1003.4,5,12,6.6,87
"2022-03-13 01:40:00",9.3,7.2,0.0,0.0,0,1003.3,4,7,7.7,87
"2022-03-13 01:41:00",9.3,7.4,0.0,0.0,0,1003.4,3,6,7.9,88
"2022-03-13 01:42:00",9.3,7.4,0.0,0.0,0,1003.4,2,5,8.2,88
"2022-03-13 01:43:00",9.3,7.4,0.0,0.0,0,1003.4,3,5,8.2,88
"2022-03-13 01:44:00",9.3,7.4,0.0,0.0,0,1003.3,4,12,6.6,88
"2022-03-13 01:45:00",9.3,7.2,0.0,0.0,0,1003.3,7,11,6.7,87
"2022-03-13 01:46:00",9.3,7.2,0.0,0.0,0,1003.3,6,13,6.4,87
"2022-03-13 01:47:00",9.3,7.4,0.0,0.0,0,1003.3,5,7,7.6,88
"2022-03-13 01:48:00",9.4,7.3,0.0,0.0,0,1003.2,2,3,"",87
"2022-03-13 01:49:00",9.3,7.4,0.0,0.0,0,1003.2,2,3,"",88
"2022-03-13 01:50:00",9.3,7.4,0.0,0.0,0,1003.3,2,3,"",88
"2022-03-13 01:51:00",9.3,7.4,0.0,0.0,0,1003.3,2,5,8.2,88
"2022-03-13 01:52:00",9.3,7.4,0.0,0.0,0,1003.3,4,7,7.6,88
"2022-03-13 01:53:00",9.3,7.4,0.0,0.0,0,1003.3,5,9,7.1,88
"2022-03-13 01:54:00",9.3,7.4,0.0,0.0,0,1003.2,2,3,"",88
"2022-03-13 01:55:00",9.3,7.2,0.0,0.0,0,1003.2,2,4,8.6,87
"2022-03-13 01:56:00",9.3,7.2,0.0,0.0,0,1003.3,4,7,7.6,87
"2022-03-13 01:57:00",9.3,7.2,0.0,0.0,0,1003.2,2,5,8.2,87
"2022-03-13 01:58:00",9.4,7.3,0.0,0.0,0,1003.2,1,4,8.7,87
"2022-03-13 01:59:00",9.3,7.2,0.0,0.0,0,1003.2,2,4,8.6,87
"2022-03-13 02:00:00",9.3,7.2,0.0,0.0,0,1003.2,2,4,8.6,87
"2022-03-13 02:01:00",9.3,7.4,0.0,0.0,0,1003.2,2,4,8.6,88
"2022-03-13 02:02:00",9.3,7.4,0.0,0.0,0,1003.2,4,7,7.6,88
"2022-03-13 02:03:00",9.3,7.2,0.0,0.0,0,1003.2,4,7,7.6,87
"2022-03-13 02:04:00",9.3,7.2,0.0,0.0,0,1003.1,2,3,"",87
"2022-03-13 02:05:00",9.3,7.2,0.0,0.0,0,1003.1,1,2,"",87
"2022-03-13 02:06:00",9.3,7.2,0.0,0.0,0,1003.1,3,6,7.9,87
"2022-03-13 02:07:00",9.3,7.2,0.0,0.0,0,1003.0,3,5,8.2,87
"2022-03-13 02:08:00",9.4,7.3,0.0,0.0,0,1003.2,4,6,7.9,87
"2022-03-13 02:09:00",9.3,7.2,0.0,0.0,0,1003.1,5,9,7.1,87
"2022-03-13 02:10:00",9.4,7.3,0.0,0.0,0,1003.1,2,4,8.6,87
"2022-03-13 02:11:00",9.4,7.3,0.0,0.0,0,1003.0,4,8,7.5,87
"2022-03-13 02:12:00",9.4,7.3,0.0,0.0,0,1003.0,4,6,8.0,87
"2022-03-13 02:13:00",9.4,7.3,0.0,0.0,0,1003.1,4,8,7.5,87
"2022-03-13 02:14:00",9.4,7.3,0.0,0.0,0,1003.0,4,6,8.0,87
"2022-03-13 02:15:00",9.4,7.3,0.0,0.0,0,1003.0,4,7,7.7,87
"2022-03-13 02:16:00",9.4,7.3,0.0,0.0,0,1003.0,1,4,8.7,87
"2022-03-13 02:17:00",9.4,7.3,0.0,0.0,0,1003.0,3,4,8.7,87
"2022-03-13 02:18:00",9.4,7.3,0.0,0.0,0,1003.0,3,4,8.7,87
"2022-03-13 02:19:00",9.4,7.3,0.0,0.0,0,1003.0,3,5,8.3,87
"2022-03-13 02:20:00",9.4,7.3,0.0,0.0,0,1002.9,2,5,8.3,87
"2022-03-13 02:21:00",9.4,7.3,0.0,0.0,0,1002.9,4,7,7.7,87
"2022-03-13 02:22:00",9.4,7.3,0.0,0.0,0,1003.0,5,9,7.2,87
"2022-03-13 02:23:00",9.4,7.3,0.0,0.0,0,1003.0,3,5,8.3,87
"2022-03-13 02:24:00",9.4,7.3,0.0,0.0,0,1003.0,5,8,7.5,87
"2022-03-13 02:25:00",9.4,7.3,0.0,0.0,0,1003.0,4,6,8.0,87
"2022-03-13 02:26:00",9.4,7.3,0.0,0.0,0,1003.0,6,9,7.2,87
"2022-03-13 02:27:00",9.4,7.3,0.0,0.0,0,1003.0,3,6,8.0,87
"2022-03-13 02:28:00",9.4,7.3,0.0,0.0,0,1003.0,3,7,7.7,87
"2022-03-13 02:29:00",9.4,7.3,0.0,0.0,0,1003.0,2,3,"",87
"2022-03-13 02:30:00",9.4,7.3,0.0,0.0,0,1002.9,5,10,7.0,87
"2022-03-13 02:31:00",9.3,7.2,0.0,0.0,0,1003.0,6,8,7.5,87
"2022-03-13 02:32:00",9.4,7.3,0.0,0.0,0,1002.9,2,5,8.3,87
"2022-03-13 02:33:00",9.4,7.3,0.0,0.0,0,1002.9,2,4,8.7,87
"2022-03-13 02:34:00",9.4,7.5,0.0,0.0,0,1002.9,4,7,7.6,88
"2022-03-13 02:35:00",9.3,7.4,0.0,0.0,0,1003.0,2,5,8.3,88
"2022-03-13 02:36:00",9.3,7.4,0.0,0.0,0,1002.9,2,5,8.2,88
"2022-03-13 02:37:00",9.3,7.4,0.0,0.0,0,1003.0,2,4,8.6,88
"2022-03-13 02:38:00",9.3,7.4,0.0,0.0,0,1002.9,1,2,"",88
"2022-03-13 02:39:00",9.3,7.4,0.0,0.0,0,1002.9,4,9,7.1,88
"2022-03-13 02:40:00",9.3,7.4,0.0,0.0,0,1002.9,3,6,7.9,88
"2022-03-13 02:41:00",9.3,7.4,0.0,0.0,0,1002.8,2,3,"",88
"2022-03-13 02:42:00",9.3,7.4,0.0,0.0,0,1002.8,2,4,8.6,88
"2022-03-13 02:43:00",9.3,7.4,0.0,0.0,0,1002.7,3,5,8.2,88
"2022-03-13 02:44:00",9.3,7.4,0.0,0.0,0,1002.8,3,8,7.3,88
"2022-03-13 02:45:00",9.3,7.4,0.0,0.0,0,1002.7,2,4,8.4,88
"2022-03-13 02:46:00",9.3,7.4,0.0,0.0,0,1002.7,1,3,"",88
"2022-03-13 02:47:00",9.3,7.4,0.0,0.0,0,1002.7,3,6,7.9,88
"2022-03-13 02:48:00",9.3,7.4,0.0,0.0,0,1002.7,4,6,7.9,88
"2022-03-13 02:49:00",9.3,7.4,0.0,0.0,0,1002.6,1,2,"",88
"2022-03-13 02:50:00",9.3,7.4,0.0,0.0,0,1002.6,2,3,"",88
"2022-03-13 02:51:00",9.3,7.4,0.0,0.0,0,1002.6,4,9,7.1,88
"2022-03-13 02:52:00",9.3,7.4,0.0,0.0,0,1002.7,3,6,7.9,88
"2022-03-13 02:53:00",9.3,7.4,0.0,0.0,0,1002.6,4,11,6.7,88
"2022-03-13 02:54:00",9.3,7.4,0.0,0.0,0,1002.7,2,5,8.2,88
"2022-03-13 02:55:00",9.3,7.2,0.0,0.0,0,1002.6,5,10,6.9,87
"2022-03-13 02:56:00",9.3,7.2,0.0,0.0,0,1002.7,5,12,6.6,87
"2022-03-13 02:57:00",9.3,7.2,0.0,0.0,0,1002.7,3,9,7.1,87
"2022-03-13 02:58:00",9.3,7.2,0.0,0.0,0,1002.7,2,6,8.0,87
"2022-03-13 02:59:00",9.4,7.3,0.0,0.0,0,1002.6,2,4,8.6,87
"2022-03-13 03:00:00",9.4,7.3,0.0,0.0,0,1002.7,2,4,8.7,87
"2022-03-13 03:01:00",9.3,7.2,0.0,0.0,0,1002.6,4,7,7.7,87
"2022-03-13 03:02:00",9.3,7.4,0.0,0.0,0,1002.6,2,4,8.6,88
"2022-03-13 03:03:00",9.3,7.4,0.0,0.0,0,1002.6,3,7,7.6,88
"2022-03-13 03:04:00",9.3,7.4,0.0,0.0,0,1002.6,4,6,7.9,88
"2022-03-13 03:05:00",9.3,7.4,0.0,0.0,0,1002.6,2,4,8.6,88
"2022-03-13 03:06:00",9.3,7.6,0.0,0.0,0,1002.6,3,6,7.9,89
"2022-03-13 03:07:00",9.2,7.5,0.0,0.0,0,1002.5,4,7,7.5,89
"2022-03-13 03:08:00",9.2,7.5,0.0,0.0,0,1002.5,3,5,8.1,89
"2022-03-13 03:09:00",9.2,7.5,0.0,0.0,0,1002.5,1,3,"",89
"2022-03-13 03:10:00",9.2,7.5,0.0,0.0,0,1002.5,1,2,"",89
"2022-03-13 03:11:00",9.2,7.5,0.0,0.0,0,1002.5,2,7,7.5,89
"2022-03-13 03:12:00",9.1,7.4,0.0,0.0,0,1002.5,4,7,7.5,89
"2022-03-13 03:13:00",9.1,7.4,0.0,0.0,0,1002.5,2,3,"",89
"2022-03-13 03:14:00",9.1,7.4,0.0,0.0,0,1002.5,1,2,"",89
"2022-03-13 03:15:00",9.1,7.5,0.0,0.0,0,1002.5,2,5,7.9,90
"2022-03-13 03:16:00",9.1,7.5,0.0,0.0,0,1002.5,4,6,7.6,90
"2022-03-13 03:17:00",9.1,7.5,0.0,0.0,0,1002.5,2,7,7.2,90
"2022-03-13 03:18:00",9.1,7.5,0.0,0.0,0,1002.4,1,2,"",90
"2022-03-13 03:19:00",9.1,7.5,0.0,0.0,0,1002.4,2,4,8.3,90
"2022-03-13 03:20:00",9.0,7.4,0.0,0.0,0,1002.4,3,5,7.8,90
"2022-03-13 03:21:00",8.9,7.3,0.0,0.0,0,1002.4,4,10,6.5,90
"2022-03-13 03:22:00",8.9,7.3,0.0,0.0,0,1002.4,3,10,6.4,90
"2022-03-13 03:23:00",8.9,7.3,0.0,0.0,0,1002.4,5,11,6.2,90
"2022-03-13 03:24:00",8.9,7.3,0.0,0.0,0,1002.4,3,5,7.7,90
"2022-03-13 03:25:00",8.9,7.3,0.0,0.0,0,1002.4,2,4,8.1,90
"2022-03-13 03:26:00",8.9,7.3,0.0,0.0,0,1002.4,3,6,7.4,90
"2022-03-13 03:27:00",8.9,7.3,0.0,0.0,0,1002.4,3,6,7.4,90
"2022-03-13 03:28:00",8.9,7.3,0.0,0.0,0,1002.4,3,6,7.4,90
"2022-03-13 03:29:00",8.9,7.3,0.0,0.0,0,1002.3,3,6,7.4,90
"2022-03-13 03:30:00",8.9,7.3,0.0,0.0,0,1002.3,2,5,7.7,90
"2022-03-13 03:31:00",8.9,7.3,0.0,0.0,0,1002.2,1,4,8.1,90
"2022-03-13 03:32:00",8.9,7.3,0.2,0.0,0,1002.2,3,7,7.1,90
"2022-03-13 03:33:00",8.9,7.3,0.2,0.0,0,1002.3,4,9,6.6,90
"2022-03-13 03:34:00",8.9,7.3,0.2,0.0,0,1002.3,2,2,"",90
"2022-03-13 03:35:00",8.9,7.3,0.2,0.0,0,1002.2,3,4,8.1,90
"2022-03-13 03:36:00",8.9,7.3,0.2,0.0,0,1002.3,2,3,"",90
"2022-03-13 03:37:00",8.9,7.3,0.2,0.0,0,1002.3,4,9,6.6,90
"2022-03-13 03:38:00",8.9,7.3,0.2,0.0,0,1002.2,4,12,6.1,90
"2022-03-13 03:39:00",8.9,7.3,0.2,0.0,0,1002.3,4,7,7.1,90
"2022-03-13 03:40:00",8.9,7.3,0.2,0.0,0,1002.3,4,8,6.8,90
"2022-03-13 03:41:00",8.9,7.3,0.2,0.0,0,1002.3,4,8,6.8,90
"2022-03-13 03:42:00",8.9,7.3,0.2,0.0,0,1002.3,1,2,"",90
"2022-03-13 03:43:00",8.9,7.3,0.2,0.0,0,1002.2,1,2,"",90
"2022-03-13 03:44:00",8.9,7.5,0.2,0.0,0,1002.3,2,4,8.1,91
"2022-03-13 03:45:00",8.9,7.5,0.2,0.0,0,1002.3,3,5,7.7,91
"2022-03-13 03:46:00",8.9,7.5,0.2,0.0,0,1002.2,2,5,7.7,91
"2022-03-13 03:47:00",8.9,7.3,0.2,0.0,0,1002.3,3,4,8.1,90
"2022-03-13 03:48:00",8.9,7.3,0.2,0.0,0,1002.2,2,3,"",90
"2022-03-13 03:49:00",8.9,7.3,0.2,0.0,0,1002.2,2,3,"",90
"2022-03-13 03:50:00",8.9,7.3,0.2,0.0,0,1002.2,1,2,"",90
"2022-03-13 03:51:00",8.9,7.5,0.2,0.0,0,1002.2,3,5,7.7,91
"2022-03-13 03:52:00",8.9,7.5,0.2,0.0,0,1002.2,3,6,7.4,91
"2022-03-13 03:53:00",8.9,7.5,0.2,0.0,0,1002.2,3,6,7.4,91
"2022-03-13 03:54:00",8.9,7.5,0.2,0.0,0,1002.2,2,4,8.1,91
"2022-03-13 03:55:00",8.9,7.5,0.2,0.0,0,1002.2,5,8,6.8,91
"2022-03-13 03:56:00",8.9,7.3,0.2,0.0,0,1002.2,2,5,7.7,90
"2022-03-13 03:57:00",8.9,7.3,0.2,0.0,0,1002.2,3,6,7.4,90
"2022-03-13 03:58:00",8.9,7.3,0.2,0.0,0,1002.2,1,3,"",90
"2022-03-13 03:59:00",8.9,7.3,0.2,0.0,0,1002.1,3,7,7.1,90
"2022-03-13 04:00:00",8.9,7.3,0.2,0.0,0,1002.2,2,5,7.7,90
"2022-03-13 04:01:00",8.9,7.3,0.2,0.0,0,1002.1,2,4,8.1,90
"2022-03-13 04:02:00",8.9,7.5,0.2,0.0,0,1002.2,2,5,7.7,91
"2022-03-13 04:03:00",8.9,7.5,0.4,0.0,0,1002.2,1,4,8.1,91
"2022-03-13 04:04:00",8.9,7.5,0.4,0.0,0,1002.1,4,6,7.4,91
"2022-03-13 04:05:00",8.9,7.5,0.4,0.0,0,1002.2,3,5,7.7,91
"2022-03-13 04:06:00",8.9,7.5,0.4,0.0,0,1002.2,3,6,7.4,91
"2022-03-13 04:07:00",8.9,7.5,0.4,0.0,0,1002.3,4,7,7.1,91
"2022-03-13 04:08:00",8.9,7.5,0.6,0.0,0,1002.3,2,3,"",91
"2022-03-13 04:09:00",8.9,7.5,0.6,0.0,0,1002.2,4,7,7.1,91
"2022-03-13 04:10:00",8.9,7.5,0.6,0.0,0,1002.3,5,12,6.1,91
"2022-03-13 04:11:00",8.9,7.5,0.8,0.0,0,1002.3,4,10,6.4,91
"2022-03-13 04:12:00",8.9,7.5,0.8,0.0,0,1002.3,3,6,7.4,91
"2022-03-13 04:13:00",8.8,7.4,0.8,0.0,0,1002.3,3,7,7.1,91
"2022-03-13 04:14:00",8.8,7.4,1.0,0.0,0,1002.3,3,7,7.0,91
"2022-03-13 04:15:00",8.8,7.4,1.0,0.0,0,1002.3,7,12,5.9,91
"2022-03-13 04:16:00",8.8,7.4,1.2,0.0,0,1002.3,5,12,5.9,91
"2022-03-13 04:17:00",8.7,7.3,1.2,0.0,0,1002.3,5,9,6.5,91
"2022-03-13 04:18:00",8.7,7.3,1.2,0.0,0,1002.2,2,4,7.9,91
"2022-03-13 04:19:00",8.7,7.5,1.4,0.0,0,1002.2,4,7,6.9,92
"2022-03-13 04:20:00",8.7,7.5,1.4,0.0,0,1002.3,4,8,6.6,92
"2022-03-13 04:21:00",8.7,7.5,1.4,0.0,0,1002.3,3,5,7.5,92
"2022-03-13 04:22:00",8.6,7.4,1.6,0.0,0,1002.3,3,6,7.0,92
"2022-03-13 04:23:00",8.6,7.4,1.6,0.0,0,1002.2,3,5,7.4,92
"2022-03-13 04:24:00",8.6,7.4,1.6,0.0,0,1002.4,6,11,5.9,92
"2022-03-13 04:25:00",8.5,7.3,1.6,0.0,0,1002.2,1,2,"",92
"2022-03-13 04:26:00",8.5,7.3,1.8,0.0,0,1002.2,3,7,6.6,92
"2022-03-13 04:27:00",8.4,7.2,1.8,0.0,0,1002.2,1,4,7.6,92
"2022-03-13 04:28:00",8.5,7.4,1.8,0.0,0,1002.3,2,4,7.5,93
"2022-03-13 04:29:00",8.4,7.3,1.8,0.0,0,1002.2,1,7,6.5,93
"2022-03-13 04:30:00",8.4,7.3,1.8,0.0,0,1002.1,6,8,6.2,93
"2022-03-13 04:31:00",8.4,7.3,2.0,0.0,0,1002.1,2,4,7.5,93
"2022-03-13 04:32:00",8.4,7.3,2.0,0.0,0,1002.2,3,6,6.8,93
"2022-03-13 04:33:00",8.3,7.2,2.0,0.0,0,1002.2,3,7,6.5,93
"2022-03-13 04:34:00",8.4,7.3,2.0,0.0,0,1002.1,5,7,6.4,93
"2022-03-13 04:35:00",8.4,7.3,2.0,0.0,0,1002.1,2,4,7.5,93
"2022-03-13 04:36:00",8.4,7.3,2.0,0.0,0,1002.0,3,5,7.1,93
"2022-03-13 04:37:00",8.3,7.2,2.0,0.0,0,1002.1,4,7,6.4,93
"2022-03-13 04:38:00",8.4,7.3,2.0,0.0,0,1002.1,4,7,6.4,93
"2022-03-13 04:39:00",8.3,7.2,2.0,0.0,0,1002.0,2,4,7.5,93
"2022-03-13 04:40:00",8.4,7.3,2.2,0.0,0,1002.0,3,5,7.0,93
"2022-03-13 04:41:00",8.3,7.2,2.2,0.0,0,1002.0,3,7,6.4,93
"2022-03-13 04:42:00",8.3,7.2,2.2,0.0,0,1002.0,2,5,7.0,93
"2022-03-13 04:43:00",8.3,7.2,2.2,0.0,0,1001.9,2,4,7.4,93
"2022-03-13 04:44:00",8.3,7.2,2.2,0.0,0,1001.9,3,5,7.0,93
"2022-03-13 04:45:00",8.3,7.2,2.2,0.0,0,1002.0,3,5,7.0,93
"2022-03-13 04:46:00",8.3,7.2,2.2,0.0,0,1001.9,3,8,6.1,93
"2022-03-13 04:47:00",8.3,7.2,2.2,0.0,0,1001.9,4,8,6.1,93
"2022-03-13 04:48:00",8.3,7.2,2.2,0.0,0,1001.9,1,3,"",93
"2022-03-13 04:49:00",8.3,7.2,2.2,0.0,0,1001.9,2,4,7.4,93
"2022-03-13 04:50:00",8.3,7.2,2.2,0.0,0,1001.9,2,4,7.4,93
"2022-03-13 04:51:00",8.3,7.2,2.2,0.0,0,1002.0,2,3,"",93
"2022-03-13 04:52:00",8.3,7.2,2.2,0.0,0,1001.9,1,2,"",93
"2022-03-13 04:53:00",8.3,7.2,2.2,0.0,0,1001.9,3,6,6.7,93
"2022-03-13 04:54:00",8.3,7.2,2.2,0.0,0,1002.0,5,8,6.1,93
"2022-03-13 04:55:00",8.3,7.2,2.2,0.0,0,1002.0,3,6,6.7,93
"2022-03-13 04:56:00",8.3,7.2,2.2,0.0,0,1002.0,4,9,5.9,93
"2022-03-13 04:57:00",8.3,7.2,2.4,0.0,0,1001.9,3,6,6.7,93
"2022-03-13 04:58:00",8.3,7.2,2.4,0.0,0,1001.9,5,8,6.1,93
"2022-03-13 04:59:00",8.3,7.2,2.4,0.0,0,1001.8,2,7,6.4,93
"2022-03-13 05:00:00",8.3,7.2,2.4,0.0,0,1001.9,2,6,6.7,93
"2022-03-13 05:01:00",8.3,7.2,2.4,0.0,0,1001.9,2,5,7.0,93
"2022-03-13 05:02:00",8.3,7.2,2.6,0.0,0,1001.9,4,7,6.4,93
"2022-03-13 05:03:00",8.3,7.2,2.6,0.0,0,1001.9,2,4,7.4,93
"2022-03-13 05:04:00",8.3,7.4,2.6,0.0,0,1001.8,2,3,"",94
"2022-03-13 05:05:00",8.3,7.4,2.6,0.0,0,1001.8,2,5,7.0,94
"2022-03-13 05:06:00",8.3,7.4,2.6,0.0,0,1001.8,1,2,"",94
"2022-03-13 05:07:00",8.3,7.4,2.6,0.0,0,1001.8,1,2,"",94
"2022-03-13 05:08:00",8.3,7.4,2.6,0.0,0,1001.8,5,9,5.9,94
"2022-03-13 05:09:00",8.3,7.4,2.6,0.0,0,1001.8,2,5,7.0,94
"2022-03-13 05:10:00",8.3,7.4,2.6,0.0,0,1001.8,2,3,"",94
"2022-03-13 05:11:00",8.3,7.4,2.6,0.0,0,1001.8,2,3,"",94
"2022-03-13 05:12:00",8.3,7.4,2.6,0.0,0,1001.8,1,3,"",94
"2022-03-13 05:13:00",8.3,7.4,2.6,0.0,0,1001.8,2,3,"",94
"2022-03-13 05:14:00",8.3,7.4,2.6,0.0,0,1001.8,2,4,7.4,94
"2022-03-13 05:15:00",8.3,7.4,2.8,0.0,0,1001.8,3,5,7.0,94
"2022-03-13 05:16:00",8.3,7.4,2.8,0.0,0,1001.9,2,3,"",94
"2022-03-13 05:17:00",8.3,7.4,2.8,0.0,0,1001.8,1,4,7.4,94
"2022-03-13 05:18:00",8.3,7.4,2.8,0.0,0,1001.9,4,7,6.4,94
"2022-03-13 05:19:00",8.3,7.4,2.8,0.0,0,1001.8,3,6,6.8,94
"2022-03-13 05:20:00",8.4,7.5,2.8,0.0,0,1001.7,2,4,7.4,94
"2022-03-13 05:21:00",8.4,7.5,2.8,0.0,0,1001.8,2,5,7.1,94
"2022-03-13 05:22:00",8.4,7.5,2.8,0.0,0,1001.8,5,9,6.0,94
"2022-03-13 05:23:00",8.4,7.5,2.8,0.0,0,1001.9,4,6,6.8,94
"2022-03-13 05:24:00",8.4,7.5,2.8,0.0,0,1001.9,3,6,6.8,94
"2022-03-13 05:25:00",8.4,7.5,2.8,0.0,0,1001.8,3,5,7.1,94
"2022-03-13 05:26:00",8.4,7.5,2.8,0.0,0,1001.9,1,3,"",94
"2022-03-13 05:27:00",8.4,7.5,3.0,0.0,0,1001.9,4,6,6.8,94
"2022-03-13 05:28:00",8.4,7.5,3.0,0.0,0,1001.9,2,6,6.8,94
"2022-03-13 05:29:00",8.4,7.5,3.0,0.0,0,1001.8,3,7,6.5,94
"2022-03-13 05:30:00",8.4,7.5,3.0,0.0,0,1001.8,5,9,6.0,94
"2022-03-13 05:31:00",8.4,7.5,3.0,0.0,0,1001.9,4,10,5.8,94
"2022-03-13 05:32:00",8.4,7.5,3.0,0.0,0,1001.8,2,5,7.1,94
"2022-03-13 05:33:00",8.4,7.5,3.0,0.0,0,1001.9,3,6,6.8,94
"2022-03-13 05:34:00",8.4,7.5,3.0,0.0,0,1001.9,3,6,6.8,94
"2022-03-13 05:35:00",8.4,7.5,3.0,0.0,0,1002.0,2,3,"",94
"2022-03-13 05:36:00",8.4,7.5,3.0,0.0,0,1002.0,5,10,5.8,94
"2022-03-13 05:37:00",8.4,7.5,3.0,0.0,0,1001.9,2,3,"",94
"2022-03-13 05:38:00",8.4,7.5,3.0,0.0,0,1001.9,3,5,7.1,94
"2022-03-13 05:39:00",8.4,7.5,3.0,0.0,0,1001.9,2,3,"",94
"2022-03-13 05:40:00",8.4,7.5,3.0,0.0,0,1001.9,1,3,"",94
"2022-03-13 05:41:00",8.4,7.5,3.0,0.0,0,1001.9,3,9,6.0,94
"2022-03-13 05:42:00",8.4,7.5,3.0,0.0,0,1001.9,6,11,5.6,94
"2022-03-13 05:43:00",8.5,7.6,3.0,0.0,0,1002.0,5,9,6.0,94
"2022-03-13 05:44:00",8.4,7.5,3.0,0.0,0,1001.9,3,5,7.1,94
"2022-03-13 05:45:00",8.4,7.5,3.2,0.0,0,1002.0,1,3,"",94
"2022-03-13 05:46:00",8.4,7.5,3.2,0.0,0,1002.0,3,5,7.1,94
"2022-03-13 05:47:00",8.5,7.6,3.2,0.0,0,1001.9,2,7,6.5,94
"2022-03-13 05:48:00",8.5,7.6,3.2,0.0,0,1002.0,5,8,6.4,94
"2022-03-13 05:49:00",8.5,7.6,3.2,0.0,0,1001.9,2,4,7.5,94
"2022-03-13 05:50:00",8.5,7.6,3.2,0.0,0,1001.9,2,4,7.5,94
"2022-03-13 05:51:00",8.5,7.6,3.2,0.0,0,1001.8,2,3,"",94
"2022-03-13 05:52:00",8.4,7.5,3.4,0.0,0,1001.9,5,8,6.4,94
"2022-03-13 05:53:00",8.4,7.5,3.4,0.0,0,1001.9,3,8,6.2,94
"2022-03-13 05:54:00",8.4,7.5,3.4,0.0,0,1001.9,3,7,6.5,94
"2022-03-13 05:55:00",8.5,7.6,3.4,0.0,0,1002.0,5,8,6.2,94
"2022-03-13 05:56:00",8.5,7.6,3.4,0.0,0,1001.9,5,8,6.4,94
"2022-03-13 05:57:00",8.5,7.6,3.4,0.0,0,1002.0,5,9,6.1,94
"2022-03-13 05:58:00",8.5,7.6,3.4,0.0,0,1001.9,4,8,6.4,94
"2022-03-13 05:59:00",8.5,7.6,3.4,0.0,0,1001.9,3,4,7.6,94
"2022-03-13 06:00:00",8.5,7.6,3.4,0.0,0,1002.0,3,7,6.6,94
"2022-03-13 06:01:00",8.5,7.6,3.4,0.0,0,1002.0,4,9,6.1,94
"2022-03-13 06:02:00",8.5,7.6,3.4,0.0,0,1002.0,5,8,6.4,94
"2022-03-13 06:03:00",8.5,7.6,3.4,0.0,0,1002.0,2,4,7.6,94
"2022-03-13 06:04:00",8.5,7.6,3.4,0.0,0,1002.1,2,6,6.9,94
"2022-03-13 06:05:00",8.5,7.6,3.4,0.0,0,1002.0,2,3,"",94
"2022-03-13 06:06:00",8.5,7.6,3.4,0.0,0,1002.0,2,4,7.6,94
"2022-03-13 06:07:00",8.5,7.6,3.4,0.0,0,1002.0,4,9,6.0,94
"2022-03-13 06:08:00",8.5,7.6,3.4,0.0,0,1002.1,3,8,6.4,94
"2022-03-13 06:09:00",8.4,7.5,3.4,0.0,0,1002.1,3,6,6.9,94
"2022-03-13 06:10:00",8.5,7.6,3.4,0.0,0,1002.1,3,5,7.2,94
"2022-03-13 06:11:00",8.4,7.5,3.4,0.0,0,1002.1,2,4,7.6,94
"2022-03-13 06:12:00",8.5,7.6,3.4,0.0,0,1002.1,2,3,"",94
"2022-03-13 06:13:00",8.5,7.6,3.4,0.0,0,1002.1,2,4,7.6,94
"2022-03-13 06:14:00",8.5,7.6,3.6,0.0,0,1002.1,1,2,"",94
"2022-03-13 06:15:00",8.5,7.6,3.6,0.0,0,1002.1,1,4,7.6,94
"2022-03-13 06:16:00",8.5,7.6,3.6,0.0,0,1002.1,4,8,6.4,94
"2022-03-13 06:17:00",8.5,7.6,3.6,0.0,0,1002.1,3,5,7.2,94
"2022-03-13 06:18:00",8.5,7.6,3.6,0.0,0,1002.1,2,3,"",94
"2022-03-13 06:19:00",8.5,7.6,3.6,0.0,0,1002.1,2,3,"",94
"2022-03-13 06:20:00",8.5,7.6,3.6,0.0,0,1002.2,2,4,7.5,94
"2022-03-13 06:21:00",8.5,7.6,3.6,0.0,0,1002.2,2,4,7.6,94
"2022-03-13 06:22:00",8.4,7.5,3.6,0.0,0,1002.2,3,6,6.9,94
"2022-03-13 06:23:00",8.5,7.6,3.8,0.0,0,1002.2,3,7,6.6,94
"2022-03-13 06:24:00",8.5,7.6,3.8,0.0,0,1002.3,4,7,6.6,94
"2022-03-13 06:25:00",8.5,7.6,3.8,0.0,0,1002.2,3,6,6.9,94
"2022-03-13 06:26:00",8.5,7.7,3.8,0.0,0,1002.2,2,5,7.2,95
"2022-03-13 06:27:00",8.5,7.7,4.0,0.0,0,1002.2,2,5,7.2,95
"2022-03-13 06:28:00",8.5,7.7,4.0,0.0,0,1002.2,2,5,7.2,95
"2022-03-13 06:29:00",8.5,7.7,4.0,0.0,0,1002.2,3,7,6.6,95
"2022-03-13 06:30:00",8.5,7.7,4.0,0.0,0,1002.2,2,4,7.6,95
"2022-03-13 06:31:00",8.5,7.7,4.2,0.0,0,1002.3,4,8,6.4,95
"2022-03-13 06:32:00",8.5,7.7,4.2,0.0,0,1002.3,3,5,7.2,95
"2022-03-13 06:33:00",8.5,7.7,4.2,0.0,0,1002.3,3,5,7.2,95
"2022-03-13 06:34:00",8.5,7.7,4.2,0.0,0,1002.3,4,5,7.2,95
"2022-03-13 06:35:00",8.5,7.7,4.2,0.0,0,1002.2,2,5,7.2,95
"2022-03-13 06:36:00",8.5,7.7,4.2,0.0,0,1002.3,4,7,6.6,95
"2022-03-13 06:37:00",8.5,7.7,4.2,0.0,0,1002.2,3,7,6.6,95
"2022-03-13 06:38:00",8.5,7.7,4.2,0.0,0,1002.3,1,2,"",95
"2022-03-13 06:39:00",8.6,7.8,4.2,0.0,0,1002.3,1,3,"",95
"2022-03-13 06:40:00",8.5,7.7,4.2,0.0,5,1002.3,3,5,7.2,95
"2022-03-13 06:41:00",8.5,7.7,4.2,0.0,5,1002.3,2,3,"",95
"2022-03-13 06:42:00",8.6,7.8,4.2,0.0,5,1002.3,2,4,7.7,95
"2022-03-13 06:43:00",8.5,7.7,4.2,0.0,5,1002.3,1,3,"",95
"2022-03-13 06:44:00",8.5,7.7,4.2,0.0,0,1002.3,1,1,"",95
"2022-03-13 06:45:00",8.5,7.7,4.2,0.0,0,1002.3,2,7,6.7,95
"2022-03-13 06:46:00",8.6,7.8,4.2,0.0,0,1002.3,3,9,6.1,95
"2022-03-13 06:47:00",8.6,7.8,4.2,0.0,0,1002.3,3,5,7.4,95
"2022-03-13 06:48:00",8.6,7.8,4.2,0.0,0,1002.3,2,4,7.7,95
"2022-03-13 06:49:00",8.6,7.8,4.2,0.0,0,1002.3,3,6,7.0,95
"2022-03-13 06:50:00",8.5,7.7,4.2,0.0,0,1002.3,3,5,7.4,95
"2022-03-13 06:51:00",8.6,7.8,4.2,0.0,0,1002.3,2,5,7.2,95